Location: Newark
(34.9500°N, 139.9667°E)
Time: 15:09:08
(UTC+00:00)

deb Explorer IX - Pass Details

Date: 18 December 2019
Orbit: 548 x 1101 km, 38.8° (Epoch: 17 January)

Event Time Altitude Azimuth Distance (km) Brightness Sun altitude
Rises 08:30:00 0° 288° (WNW) 3,270 ? -11.9°
Reaches altitude 10° 08:32:19 10° 287° (WNW) 2,422 ? -12.3°
Maximum altitude 08:38:08 75° 203° (SSW) 951 ? -13.4°
Drops below altitude 10° 08:44:53 10° 119° (ESE) 2,793 ? -14.8°
Enters shadow 08:45:44 - 118° (ESE) 3,092 ? -14.9°
